Wind_Speed
120 121 120 114 107 106 104 107 103 101 91 75 69 66 62 65 63 59 63 68 73 79 84 89 91 97 99 106 123 129 121 117 111 105 100 95 83 87
119 117 114 106 103 102 99 97 95 94 87 76 70 63 59 59 60 53 56 63 69 76 78 82 85 88 95 104 115 128 130 122 120 113 106 102 98 91
117 110 105 102 98 95 91 91 91 86 79 73 65 55 55 58 52 50 52 60 66 71 76 80 81 83 90 100 109 126 136 132 125 122 114 111 108 102
107 104 97 93 91 85 84 86 83 73 67 64 57 54 56 57 49 50 51 56 62 67 72 78 79 81 86 95 105 124 132 139 134 127 124 118 112 110
98 94 89 84 80 76 78 74 69 63 58 56 52 51 53 48 46 48 50 53 57 63 69 75 79 81 86 89 101 116 133 141 140 133 129 125 121 115
90 86 79 76 72 71 68 64 60 57 53 52 49 50 48 46 44 45 48 49 54 58 65 72 75 81 85 89 99 108 127 140 144 140 134 132 128 122
84 79 74 70 67 64 60 57 56 53 49 49 49 49 47 44 44 40 43 48 50 55 61 68 73 78 84 90 91 108 120 131 142 145 140 137 134 131
78 76 71 67 61 58 55 53 52 48 47 46 46 45 45 42 40 40 41 45 47 52 58 61 70 76 82 86 92 98 111 130 141 147 148 143 140 137
73 72 67 63 59 55 52 49 46 46 46 45 45 42 41 38 39 38 39 42 44 49 54 59 65 72 78 83 86 92 106 120 132 143 151 149 145 140
75 67 62 59 55 52 47 44 42 44 44 41 40 39 37 35 35 37 38 39 43 47 51 55 60 67 71 79 83 87 93 105 126 134 147 151 148 145
67 62 58 56 50 48 43 40 40 41 40 38 38 38 35 33 32 35 36 37 40 45 48 52 57 61 66 72 78 82 84 92 105 129 137 146 151 151
61 58 54 51 47 43 39 38 38 38 37 34 32 34 32 30 29 31 33 34 36 41 44 48 52 56 58 64 70 75 80 84 92 102 129 136 144 151
55 53 49 46 43 40 37 36 37 35 33 32 28 27 27 26 27 28 30 31 34 36 40 43 47 51 55 58 62 68 73 76 82 90 101 126 137 142
51 48 46 43 41 38 36 35 35 34 31 29 26 24 22 22 23 25 27 29 31 34 37 41 44 47 50 54 58 61 66 72 76 81 90 101 121 136
48 45 42 40 39 37 36 35 35 34 33 29 25 22 21 20 21 24 28 30 31 33 36 40 44 48 50 53 55 58 62 66 71 77 82 86 97 113
46 44 41 39 39 37 37 37 36 35 33 31 27 24 21 22 24 26 29 30 32 33 36 39 44 48 52 54 57 59 61 64 68 72 78 82 87 93
43 42 40 39 39 39 37 38 39 39 36 33 31 29 27 25 28 31 33 33 35 36 37 40 43 48 51 55 58 60 63 66 68 71 74 78 83 89
40 39 39 39 39 41 40 40 42 43 41 37 35 35 34 33 32 33 38 40 41 42 42 44 46 48 52 56 58 61 64 68 71 74 76 79 83 87
38 38 38 40 41 42 44 46 46 46 46 44 42 41 41 42 40 41 42 43 46 49 51 51 53 54 56 58 61 64 66 70 72 75 78 81 85 89
36 36 38 41 43 45 47 48 49 50 50 50 50 50 49 49 49 49 51 52 53 55 56 58 59 61 64 65 66 67 70 71 75 78 80 82 85 88
37 38 40 42 45 48 50 51 53 54 54 55 55 56 56 56 57 58 59 60 61 63 65 66 67 68 69 70 73 74 75 76 76 78 81 83 86 89
40 41 43 44 47 49 52 54 56 57 58 58 58 59 60 60 61 62 63 65 67 68 70 72 74 75 76 77 78 77 77 77 79 80 81 81 82 85
42 44 46 48 50 52 54 56 58 59 60 61 61 61 62 63 63 64 64 66 68 71 73 75 78 79 80 80 80 80 79 79 78 77 78 79 82 85
Wind_Direction
305 300 299 301 299 298 295 295 294 293 294 294 291 287 282 275 267 254 248 246 243 241 240 241 238 234 232 223 219 216 215 216 216 215 218 220 219 221
299 299 300 298 295 294 295 294 293 294 297 295 291 286 279 271 264 256 249 244 240 238 237 237 237 233 229 224 218 218 215 215 216 215 216 217 219 217
298 299 296 295 294 295 295 293 293 294 292 290 288 282 278 272 266 260 252 243 238 236 235 234 234 232 226 224 218 217 216 214 216 215 215 215 221 221
293 294 294 294 294 294 292 289 292 291 289 287 285 283 276 273 268 259 251 244 236 234 232 233 232 229 228 222 221 217 217 215 215 215 214 215 218 221
294 294 294 293 294 295 291 292 291 290 288 287 285 280 274 271 264 258 252 245 239 234 232 230 230 229 227 225 221 216 217 217 215 215 215 215 216 219
293 293 295 296 295 294 292 293 292 291 290 287 284 278 275 270 264 256 253 247 242 237 234 233 229 229 229 225 223 218 216 218 217 215 215 216 216 218
295 295 295 295 295 294 295 295 293 291 289 286 282 278 275 270 265 257 252 249 242 238 236 233 231 229 229 228 225 220 216 218 218 217 216 216 217 216
296 298 299 298 296 296 295 294 292 292 291 287 283 279 276 272 267 262 252 249 244 238 236 233 233 231 232 230 227 225 221 217 218 219 218 217 217 217
298 298 298 297 296 295 294 293 294 295 293 288 285 281 277 273 266 261 254 251 245 241 236 234 234 232 232 235 232 229 226 223 220 222 220 219 218 220
295 297 296 294 293 292 290 291 294 295 295 293 289 283 280 273 266 258 254 249 246 242 238 236 234 234 231 233 234 233 230 228 223 222 224 221 221 220
293 294 292 290 289 288 287 289 291 293 295 293 291 286 281 276 263 257 252 249 249 244 240 237 235 234 233 233 234 235 235 232 229 225 224 224 223 224
291 289 287 285 284 282 283 286 290 294 299 298 290 287 282 274 263 256 252 250 250 244 240 238 236 235 235 234 234 235 236 235 232 229 225 226 226 225
285 284 282 281 279 278 279 284 289 294 298 302 294 288 278 269 261 254 255 253 252 246 242 239 237 236 235 235 233 234 235 235 234 231 229 227 227 229
281 280 278 277 275 273 275 280 286 291 296 299 298 291 278 265 259 255 253 254 253 248 244 241 239 238 237 236 235 235 236 236 236 234 232 230 228 231
279 277 275 272 270 269 271 276 281 287 292 295 298 293 281 268 258 258 256 255 254 250 245 243 240 239 239 239 239 238 237 237 236 236 236 234 232 232
276 275 272 268 265 264 268 272 277 281 283 287 292 292 283 268 260 256 258 259 259 257 253 249 244 241 240 239 238 238 238 238 237 236 237 237 236 234
275 273 270 265 262 262 265 270 274 277 278 277 278 279 278 273 264 258 255 257 258 258 255 252 250 246 245 244 243 243 242 242 240 239 239 239 239 238
274 272 269 263 260 261 264 267 269 272 275 276 274 272 271 269 266 263 261 259 257 255 254 254 252 251 250 249 247 246 245 244 243 242 241 241 241 241
273 271 267 263 262 261 261 263 266 269 272 274 273 271 269 267 266 265 263 262 262 260 258 256 256 254 251 250 250 249 248 247 246 245 244 243 242 242
274 272 269 264 263 264 266 267 268 270 271 271 272 273 271 270 268 265 264 262 261 261 261 260 258 257 256 256 255 252 251 249 248 248 246 245 245 244
279 276 272 269 269 268 269 270 271 271 271 270 270 271 271 270 269 268 267 265 264 263 263 262 262 261 260 259 259 257 256 255 253 251 251 251 249 248
279 277 276 275 273 273 272 273 273 274 274 274 273 273 272 271 270 269 268 266 265 265 264 264 264 264 264 264 264 263 261 259 258 258 257 255 253 253
283 281 279 278 277 276 276 276 276 276 276 277 277 275 275 274 273 271 269 268 266 265 264 264 264 264 265 266 267 267 267 267 265 262 258 256 256 256
Height
10386 10387 10386 10374 10363 10354 10346 10340 10327 10313 10308 10309 10308 10304 10302 10298 10295 10302 10300 10305 10311 10317 10324 10334 10349 10362 10379 10398 10418 10438 10458 10477 10494 10509 10522 10534 10539 10549
10370 10360 10356 10348 10340 10329 10323 10311 10300 10290 10282 10279 10280 10282 10274 10271 10270 10276 10278 10282 10287 10292 10301 10310 10319 10333 10348 10365 10386 10407 10429 10450 10467 10483 10498 10511 10518 10527
10346 10336 10330 10322 10313 10306 10296 10284 10274 10270 10263 10257 10256 10259 10249 10246 10253 10255 10257 10261 10266 10271 10279 10287 10296 10308 10321 10336 10355 10373 10395 10416 10434 10452 10469 10485 10495 10505
10323 10314 10307 10298 10290 10284 10273 10261 10255 10250 10243 10238 10238 10231 10228 10228 10236 10235 10237 10240 10247 10250 10259 10265 10274 10284 10296 10309 10326 10345 10364 10384 10403 10422 10439 10459 10471 10482
10296 10289 10283 10276 10268 10261 10251 10242 10235 10229 10225 10220 10217 10214 10210 10215 10216 10217 10218 10223 10228 10234 10239 10245 10255 10264 10275 10287 10301 10316 10336 10357 10376 10393 10411 10428 10446 10458
10274 10266 10262 10254 10246 10239 10231 10224 10217 10211 10207 10202 10200 10196 10197 10197 10199 10200 10201 10206 10209 10215 10222 10226 10237 10246 10256 10265 10280 10292 10309 10328 10348 10366 10383 10401 10418 10432
10249 10243 10239 10233 10226 10220 10213 10207 10200 10195 10191 10187 10185 10182 10181 10181 10182 10185 10187 10189 10193 10197 10203 10210 10220 10228 10235 10246 10258 10272 10286 10303 10322 10339 10358 10372 10391 10406
10229 10219 10219 10213 10209 10202 10197 10191 10186 10180 10176 10173 10170 10168 10166 10166 10167 10168 10171 10173 10178 10182 10186 10195 10200 10210 10217 10228 10239 10249 10262 10275 10290 10310 10328 10344 10363 10381
10210 10205 10201 10196 10191 10187 10182 10177 10171 10167 10163 10160 10156 10154 10152 10151 10152 10154 10156 10159 10164 10168 10173 10179 10184 10191 10201 10208 10220 10230 10243 10255 10270 10288 10302 10319 10339 10356
10192 10190 10186 10181 10177 10173 10169 10164 10160 10156 10152 10147 10142 10140 10138 10138 10139 10139 10142 10146 10149 10154 10159 10165 10169 10173 10186 10190 10201 10211 10223 10237 10253 10265 10281 10301 10319 10332
10175 10173 10170 10167 10162 10160 10156 10153 10151 10146 10141 10136 10131 10127 10126 10125 10127 10127 10130 10135 10138 10142 10146 10151 10155 10162 10168 10176 10184 10193 10203 10216 10229 10246 10259 10275 10292 10306
10162 10156 10154 10152 10149 10148 10145 10142 10140 10136 10131 10126 10122 10117 10115 10114 10115 10117 10119 10124 10127 10130 10134 10139 10143 10149 10155 10162 10168 10177 10185 10194 10206 10220 10237 10249 10264 10278
10145 10140 10139 10138 10136 10135 10133 10132 10130 10127 10122 10118 10114 10110 10107 10106 10107 10108 10111 10114 10118 10121 10123 10127 10131 10136 10141 10146 10154 10160 10167 10175 10185 10196 10208 10223 10235 10248
10128 10127 10125 10124 10123 10123 10122 10121 10120 10117 10114 10111 10107 10104 10102 10100 10101 10102 10104 10106 10109 10111 10114 10117 10120 10124 10128 10132 10139 10145 10151 10158 10166 10174 10183 10195 10206 10219
10112 10112 10111 10110 10110 10110 10110 10110 10110 10108 10106 10104 10101 10098 10097 10096 10095 10096 10097 10099 10101 10102 10104 10106 10109 10113 10116 10120 10125 10130 10135 10141 10148 10154 10160 10171 10181 10190
10099 10098 10097 10097 10097 10098 10099 10099 10099 10098 10097 10096 10094 10093 10092 10091 10090 10091 10091 10092 10093 10095 10096 10098 10100 10102 10105 10108 10111 10114 10118 10123 10128 10135 10139 10147 10154 10163
10085 10084 10084 10085 10085 10086 10087 10088 10087 10087 10087 10086 10086 10086 10085 10083 10083 10083 10083 10083 10084 10084 10086 10087 10088 10091 10093 10095 10098 10101 10104 10107 10111 10116 10120 10124 10129 10135
10072 10072 10071 10072 10073 10074 10075 10076 10075 10074 10074 10074 10075 10075 10074 10074 10074 10073 10073 10073 10072 10072 10073 10073 10075 10076 10077 10079 10081 10083 10086 10089 10092 10096 10100 10104 10105 10108
10059 10059 10059 10060 10061 10061 10062 10061 10061 10061 10061 10061 10061 10061 10061 10061 10062 10062 10061 10060 10059 10058 10058 10060 10058 10059 10060 10060 10061 10063 10065 10067 10070 10072 10075 10080 10083 10084
10048 10048 10047 10047 10047 10048 10047 10048 10048 10047 10046 10046 10046 10045 10046 10046 10045 10046 10045 10044 10044 10042 10041 10041 10042 10041 10041 10041 10041 10043 10042 10045 10046 10047 10048 10052 10055 10059
10037 10036 10035 10034 10033 10034 10033 10032 10031 10030 10030 10030 10029 10028 10027 10027 10026 10026 10026 10025 10024 10023 10021 10021 10020 10020 10019 10019 10018 10018 10020 10020 10021 10022 10023 10026 10028 10031
10026 10023 10022 10021 10019 10018 10017 10015 10014 10012 10011 10010 10010 10009 10007 10007 10005 10005 10003 10003 10001 10000 10000 9998 9996 9994 9994 9993 9992 9992 9993 9994 9995 9995 9997 9999 10003 10004
10012 10010 10007 10006 10004 10002 10000 9998 9995 9994 9992 9989 9988 9988 9985 9984 9983 9981 9980 9979 9977 9975 9973 9972 9970 9969 9968 9967 9966 9965 9965 9964 9964 9965 9968 9973 9973 9972